CAPE
0 0 1 1 5 0 7 6 3 20 44 74 43 3 0 0 0 0 0 56 118 15 61 54 0 18 15 40 96 130 291 368 319 1 0 0 0 0 0 0 0 0 0 10 165 226 385 389 564 545 620 657 629 639 614 542 709 802 804 754 750 846 788 922 658 529 465 508 580 496 500 482 529 655 391 269 184 203 174 23 0 0 0 0 54 53
0 0 0 0 0 0 0 0 0 5 39 32 1 0 0 0 0 0 0 44 122 68 6 14 6 13 26 66 80 135 257 268 28 0 0 0 0 0 0 0 0 0 23 116 168 334 364 538 587 617 656 596 614 582 586 552 702 583 677 731 770 783 1056 577 677 765 606 452 444 461 589 647 658 415 242 282 502 375 261 105 3 0 0 0 3 22
0 0 1 0 0 4 21 0 3 6 38 85 5 2 5 0 0 0 0 30 82 18 0 0 0 1 22 79 105 46 103 86 8 0 0 0 0 0 0 0 0 30 79 94 173 399 460 606 648 649 665 639 641 613 584 578 575 466 580 750 608 655 658 655 730 694 710 640 566 621 603 642 522 478 335 349 466 224 109 142 122 84 16 7 5 24
0 4 14 0 0 0 1 0 7 25 23 4 0 2 0 0 0 0 0 0 0 0 0 0 0 5 13 28 55 29 29 10 0 0 0 0 0 0 0 0 7 59 70 65 230 430 500 644 711 688 682 678 651 656 539 516 435 542 660 622 678 604 641 931 1198 783 566 532 460 416 474 525 563 564 744 338 195 501 146 120 83 2 0 0 0 0
0 1 2 6 0 0 0 0 0 2 5 14 16 0 0 1 0 1 0 0 0 0 0 0 0 0 0 5 23 30 7 11 0 0 0 0 0 0 0 0 15 81 60 64 152 422 502 600 691 739 725 690 703 693 504 472 597 530 660 623 669 643 764 1079 1475 862 933 734 533 626 611 616 617 586 648 740 698 407 904 249 128 95 0 0 0 0
0 0 0 0 0 0 0 0 0 0 0 6 20 0 0 0 28 87 1 28 0 0 0 0 0 0 0 2 12 28 2 26 28 1 0 0 0 0 0 0 13 87 62 73 194 407 489 554 629 723 745 779 752 738 561 476 772 592 622 575 575 634 704 707 705 751 784 737 599 611 525 550 610 657 625 507 415 260 305 602 552 179 170 76 8 1
0 0 0 0 0 0 0 0 0 0 0 0 10 0 3 16 68 13 2 0 0 0 17 0 0 2 0 0 1 1 14 30 32 11 0 0 0 0 0 0 6 62 49 51 111 402 467 540 613 694 788 822 791 806 654 615 794 623 603 596 581 594 581 607 617 794 868 675 571 512 553 638 710 628 549 397 354 380 558 166 459 307 212 72 107 75
0 0 0 0 0 0 0 0 0 0 0 0 0 6 0 45 132 7 38 21 0 38 0 55 0 0 0 0 0 1 12 22 27 11 8 0 0 0 0 0 7 44 51 50 86 395 446 520 606 674 785 856 856 846 711 669 719 644 672 599 675 578 666 714 673 826 862 799 800 638 608 607 613 704 728 719 697 677 584 677 689 601 321 258 54 74
0 0 0 0 0 0 0 0 0 0 0 0 0 0 15 64 3 6 3 3 265 12 0 0 0 0 0 0 0 0 15 27 18 0 0 0 0 0 0 0 0 38 46 61 108 361 409 502 591 652 769 852 868 833 756 721 652 753 652 604 660 577 733 816 718 864 884 858 967 752 635 586 636 708 701 770 1069 846 821 792 704 704 730 810 745 539
0 0 0 0 0 0 0 0 0 0 6 10 0 6 8 25 2 2 0 1 0 1 10 0 0 0 0 0 0 0 5 18 8 0 3 0 0 0 0 4 0 20 33 64 105 147 364 452 558 646 766 854 878 848 791 765 729 703 732 686 650 762 657 827 821 808 782 817 811 611 591 689 624 587 787 975 870 812 838 826 804 822 885 824 705 844
0 0 0 0 0 0 0 0 0 3 1 22 106 91 6 69 8 27 0 0 0 11 6 27 104 0 0 0 0 0 0 0 0 6 24 9 0 0 0 29 14 23 33 63 93 127 264 442 546 671 760 870 889 878 809 752 804 760 737 728 597 794 707 871 780 728 689 760 613 596 664 674 626 690 820 788 790 855 879 886 892 944 940 864 951 1002
0 0 0 0 0 0 11 0 9 40 107 66 4 9 0 0 2 1 18 0 2 21 2 0 111 1 0 0 0 0 0 0 11 13 6 0 0 0 1 36 36 43 30 56 120 162 199 489 616 692 740 832 881 893 819 738 894 836 758 695 584 773 809 814 825 805 698 753 851 670 590 702 650 728 742 858 917 970 965 970 990 1039 1002 995 1035 1087
0 0 0 0 2 0 2 62 142 133 0 2 0 0 0 0 0 0 2 22 0 6 0 95 32 0 0 0 0 0 0 0 0 9 14 0 0 0 2 12 22 44 28 53 126 156 369 552 685 705 718 783 841 857 772 807 892 820 758 706 606 752 788 763 862 779 721 749 892 777 728 710 678 695 733 836 896 1002 1066 1063 1056 1068 1049 1074 1099 1086
0 1 1 7 7 8 58 88 5 165 0 0 0 0 0 0 0 0 0 0 0 0 1 130 9 6 0 0 0 0 0 0 0 0 0 0 0 0 0 2 24 34 41 47 107 192 400 589 708 738 755 790 827 839 784 836 859 804 744 688 592 791 728 749 913 831 791 786 960 785 650 610 626 675 742 818 960 1038 982 994 1024 1080 1118 1119 1076 1103
0 0 0 1 2 3 4 38 6 26 1 0 0 2 0 0 0 1 2 0 0 0 0 0 0 1 0 0 0 0 0 0 0 0 27 72 0 0 0 16 46 66 59 85 133 233 398 571 716 762 766 803 847 845 785 833 820 691 688 656 599 735 680 683 926 824 773 857 1008 732 645 495 614 701 739 824 881 916 900 959 1058 1115 1113 1104 1113 1431
0 3 0 0 0 0 0 23 8 41 0 0 0 0 0 0 0 107 0 1 0 1 0 0 0 0 6 0 0 0 0 0 0 0 0 15 0 0 0 26 34 86 100 181 190 249 391 557 674 730 753 804 819 822 762 780 748 662 656 653 619 727 747 738 958 824 778 870 872 727 842 872 666 680 775 799 770 834 938 1028 1071 1111 1241 1208 1280 1144
0 0 0 0 0 0 5 0 0 0 57 0 0 9 2 0 0 0 0 0 0 0 0 70 0 0 0 0 0 0 0 0 0 0 0 0 0 0 0 6 43 108 169 278 286 408 422 555 641 668 721 772 750 770 707 710 684 686 641 686 630 723 772 815 1020 894 803 872 792 750 901 846 1020 721 725 770 797 875 978 1083 1141 1433 1561 1391 1209 1120
0 1 0 1 0 0 11 0 2 1 0 0 4 0 0 0 0 9 4 0 1 0 0 0 3 0 2 0 0 0 0 0 0 0 0 0 0 0 0 8 43 111 232 411 455 474 483 551 595 614 639 629 639 671 654 688 658 673 684 684 717 754 867 806 901 1016 707 883 870 889 856 811 1079 717 681 730 943 981 997 1037 1171 1403 1274 1290 1256 1263
0 0 1 0 0 0 1 0 2 0 0 0 2 0 9 1 19 0 0 2 1 0 0 0 0 0 0 10 0 0 0 0 0 0 0 0 0 0 0 7 9 86 352 468 548 544 548 572 558 600 659 596 593 606 639 706 710 696 729 697 739 762 852 848 838 982 826 887 873 958 913 859 1011 850 806 926 1336 1174 972 1038 1281 1260 1116 1260 1310 1318
0 1 2 0 0 1 0 0 3 3 0 0 0 1 167 0 0 0 0 0 0 0 0 0 0 0 0 0 0 0 0 0 0 0 0 0 0 0 1 1 2 129 409 470 554 597 588 596 576 627 666 628 619 594 640 717 765 775 758 760 787 767 814 846 893 928 961 901 923 973 1034 971 958 962 942 1042 1474 1328 1240 1217 1265 1106 874 1188 1414 1197
0 0 1 0 0 0 5 2 3 3 3 0 0 0 0 0 0 0 0 0 0 0 0 0 0 0 0 0 0 0 0 0 0 0 0 0 0 0 1 1 0 175 376 404 487 621 612 599 593 651 647 604 602 554 647 685 786 827 814 792 839 800 836 871 962 939 976 886 919 888 1082 1079 946 1116 1038 1009 1324 1443 1396 1364 1325 947 846 1138 1320 1339
0 0 0 0 0 0 7 10 0 0 0 1 1 1 0 0 18 4 3 0 0 0 0 0 0 0 0 0 0 0 0 0 0 0 0 0 0 0 16 0 9 168 170 236 474 613 631 595 595 711 667 608 587 546 665 619 739 840 856 854 863 801 922 869 1016 998 981 967 949 964 1129 1095 895 1102 1069 1107 1288 1480 1350 1377 1208 1210 1061 1242 1240 1446
0 0 0 0 0 0 2 0 0 0 0 0 0 48 260 13 0 0 0 2 0 0 0 0 0 0 0 0 0 0 1 0 0 0 0 0 0 0 10 18 12 141 152 205 478 606 649 610 676 774 714 660 601 611 691 701 695 779 827 844 913 846 907 898 1002 1028 965 1030 993 982 1112 1181 953 1117 1008 1122 1342 1371 1350 1404 1350 1312 1121 996 1187 1151
1838 0 0 0 0 0 0 0 0 0 0 0 98 50 86 28 0 0 0 0 0 0 1 0 0 0 0 0 0 0 0 0 8 0 0 0 0 0 22 30 34 20 89 232 517 587 636 649 744 833 789 735 675 694 657 741 722 714 740 785 886 902 922 946 958 1016 974 998 1019 950 1044 1166 994 958 1180 1112 1311 1244 1319 1485 1329 1158 1162 1157 1117 1186
0 1 0 0 0 0 0 0 1 0 0 1 87 52 172 39 153 45 0 4 5 3 0 0 0 4 0 0 0 0 0 10 21 0 0 0 0 0 32 38 20 12 101 237 576 632 658 708 811 921 919 842 790 770 731 773 754 701 672 710 874 953 938 983 966 988 1017 1012 1042 970 1023 1052 1128 818 1085 1135 1223 1174 1276 1434 1345 1295 1226 1230 1246 1272
0 9 0 0 0 0 84 50 10 0 0 54 225 11 136 7 1 6 152 2 0 1 0 0 0 6 6 0 0 0 0 0 0 0 0 1 2 14 20 33 14 23 26 456 579 640 686 746 816 942 1015 994 945 912 793 760 839 786 752 662 751 911 960 978 1004 1012 1042 1055 1025 1023 1159 1047 981 858 903 1098 1114 1155 1259 1396 1348 1310 1408 1301 1300 1309
0 6 0 0 0 0 28 37 12 0 0 7 7 2 1 0 0 0 0 0 0 4 12 24 11 9 6 0 0 0 0 0 0 0 4 0 0 11 15 21 33 39 27 514 587 629 711 775 845 922 1026 1085 1069 1038 934 811 886 896 925 847 769 854 996 1023 1037 1045 1044 1072 1072 951 1114 1232 997 969 902 1000 1034 1148 1199 1399 1359 1247 1428 1303 1315 1251
0 2 24 6 9 0 0 25 31 22 21 0 19 18 0 31 0 10 0 48 0 3 5 40 40 12 5 0 0 0 2 0 0 4 24 7 7 5 36 53 48 39 29 473 548 621 702 753 834 925 989 1060 1127 1120 1083 960 920 951 952 1005 952 884 947 1048 1079 1085 1036 1046 1088 1005 981 1239 1149 926 962 1040 1088 1114 1172 1439 1397 1268 1322 1293 1287 1242
0 49 166 15 19 0 0 23 36 28 17 13 0 2 5 8 15 10 0 295 71 3 18 26 138 6 17 0 0 0 21 45 5 0 18 8 5 30 36 37 39 45 44 113 523 608 671 657 752 916 968 974 1032 1122 1153 1128 1050 989 994 980 1041 1048 980 1019 1076 1110 1092 1046 1057 1062 1016 1092 1250 1116 971 982 1200 1196 1184 1389 1437 1348 1270 1283 1279 1259
0 131 167 24 40 6 0 18 38 40 19 118 352 154 14 262 69 12 191 160 263 24 3 195 30 414 718 739 632 581 3 0 4 10 44 26 1 30 45 22 44 50 43 49 324 610 627 464 214 814 928 924 959 1055 1130 1160 1151 1101 1068 1067 1059 1076 1101 1076 1088 1109 1129 1118 1097 1049 1067 1072 1176 1224 1144 989 1082 1319 1290 1259 1381 1418 1369 1330 1299 1321
0 37 261 47 26 8 0 0 0 2 335 587 669 798 594 151 28 26 364 382 247 26 46 0 220 626 763 810 1352 1414 1269 1132 1109 845 233 427 415 17 25 4 26 34 52 75 554 611 621 602 130 170 822 869 879 938 1034 1090 1102 1110 1119 1144 1140 1112 1097 1119 1154 1143 1173 1184 1191 1170 1097 1113 1134 1220 1231 1158 1077 1248 1365 1357 1349 1464 1450 1398 1404 1404
158 343 18 39 21 12 1 0 0 10 404 753 830 783 875 797 484 1029 1066 979 576 142 35 346 528 788 708 1312 1583 1315 1174 1097 977 922 822 837 684 359 292 31 30 10 14 281 349 651 623 561 101 110 552 742 733 783 906 1029 1046 1060 1086 1129 1169 1164 1132 1124 1146 1182 1192 1236 1247 1240 1185 1098 1126 1152 1258 1260 1182 1317 1416 1459 1470 1511 1510 1456 1474 1444
121 315 6 6 0 0 0 0 1 0 0 454 925 994 914 1022 1153 886 814 816 928 711 403 357 868 826 751 1149 1354 1354 1258 1085 1010 922 825 834 842 936 864 800 577 123 529 718 763 827 744 358 448 101 633 598 670 634 614 827 954 994 1015 1045 1108 1145 1157 1186 1198 1198 1210 1217 1227 1231 1214 1158 1146 1144 1168 1270 1318 1388 1522 1571 1564 1587 1573 1515 1470 1427
331 114 28 0 1 0 0 36 0 0 12 280 1008 1178 1235 900 806 677 732 850 786 758 712 773 744 804 748 1194 1312 1379 1319 1383 1256 1008 896 812 866 992 1102 1172 1116 1180 1234 1286 1467 1691 1498 787 838 842 749 690 789 799 645 546 813 925 944 960 1005 1050 1103 1153 1182 1182 1192 1207 1201 1200 1182 1176 1192 1187 1179 1217 1337 1444 1507 1588 1665 1664 1645 1607 1516 1452
266 208 145 0 13 23 18 13 5 21 99 1060 992 940 899 796 691 737 813 863 724 531 644 644 778 736 748 883 1391 1308 1358 1345 1208 1139 1009 830 914 992 1171 1224 1290 1500 1639 1758 1834 2005 2122 1885 839 863 1031 993 992 1036 884 719 580 802 882 921 936 981 1020 1080 1137 1155 1163 1176 1182 1145 1115 1149 1218 1247 1241 1196 1268 1463 1545 1577 1677 1759 1747 1706 1653 1598
67 102 110 0 0 2 0 12 0 0 778 842 879 868 864 888 725 693 673 783 800 853 834 813 684 714 771 717 909 1330 1263 1237 1178 1100 1112 1037 883 988 1051 1122 1180 1221 1301 1512 1764 1895 2038 2268 1974 1739 1111 1155 1221 1214 1175 1012 785 634 725 833 904 951 997 1014 1062 1107 1122 1133 1136 1094 1076 1105 1159 1206 1216 1174 1199 1394 1545 1612 1685 1776 1788 1780 1764 1701
0 0 0 7 0 2 0 0 66 720 864 712 756 816 743 896 664 703 575 673 571 761 757 704 740 597 764 677 727 1007 1315 1210 1124 916 989 1058 1088 986 948 1032 1128 1098 1106 1182 1361 1626 1926 2106 2191 2119 1729 1319 1038 1058 1046 1060 954 722 430 659 779 893 954 982 1035 1086 1084 1083 1059 1054 1053 1059 1074 1090 1073 1086 1152 1286 1447 1586 1704 1769 1763 1735 1738 1732
0 0 0 21 0 0 0 0 490 847 787 659 636 648 722 707 664 753 617 707 650 933 743 785 646 678 676 769 689 950 1095 1131 931 795 1037 1045 973 958 952 949 957 956 956 1065 1186 1268 1418 1750 2089 2166 1815 1622 1056 453 510 113 558 506 428 596 585 710 784 928 996 1033 1064 1058 1037 1044 1029 1017 1016 1014 994 1018 1103 1216 1344 1499 1657 1733 1750 1704 1661 1674
205 0 0 0 0 0 0 0 27 265 60 611 657 691 809 714 647 925 771 777 534 580 788 758 768 780 720 726 721 754 831 678 725 863 1050 1023 919 895 766 735 674 712 748 843 941 1187 1358 1407 1757 2113 2053 1682 1350 1070 1044 1005 66 706 802 720 772 792 808 862 946 992 1018 1025 1016 1011 1002 1015 1007 983 942 1006 1071 1159 1287 1413 1573 1678 1694 1682 1633 1654
243 49 161 0 0 0 0 0 0 0 508 511 594 684 740 854 616 622 703 212 318 427 504 584 541 497 556 612 786 737 589 641 918 786 860 952 844 836 686 621 556 568 663 704 807 853 1189 1430 1559 1896 2111 1946 1648 1538 1344 1143 983 679 727 908 870 835 844 910 953 965 963 988 1017 999 1000 1018 1033 1022 971 1010 1055 1119 1225 1365 1522 1611 1645 1643 1617 1657
194 195 0 157 0 0 0 58 193 56 180 462 613 709 685 773 656 430 211 110 306 416 489 487 434 380 367 287 438 719 580 484 680 829 762 771 736 579 531 294 350 702 638 625 584 627 648 853 1234 1505 1734 2011 2086 2005 1851 1396 1199 950 723 730 861 974 1021 1027 892 780 874 917 1002 1050 1060 1048 1053 1033 1008 960 1019 1093 1148 1304 1433 1502 1536 1552 1545 1621
27 20 67 0 64 1 0 0 0 370 235 402 360 656 741 627 598 512 295 218 119 304 251 263 258 336 367 322 307 263 332 456 648 590 678 566 134 109 107 91 340 752 724 638 489 229 420 485 542 764 1238 1623 1888 2107 2099 1844 1378 1187 1016 824 722 670 637 680 801 809 649 769 950 1050 1075 1080 1068 1048 1023 984 934 992 1088 1216 1289 1344 1393 1464 1501 1538
13 0 6 62 119 176 203 137 60 166 83 0 468 200 455 109 213 300 49 19 24 170 185 316 336 381 320 286 157 69 43 68 378 381 529 645 485 419 353 364 139 319 0 344 456 268 228 182 86 220 532 538 852 1318 1589 1423 1693 1397 1213 1101 963 794 742 794 797 569 157 462 744 855 1033 1091 1072 1073 1035 993 925 922 1016 1131 1203 1280 1320 1369 1448 1497
109 0 0 3 39 96 113 144 100 31 122 105 22 260 148 110 98 88 48 47 23 89 154 230 127 121 106 31 62 81 168 49 11 1 48 41 10 1 192 321 278 67 343 152 177 452 6 186 10 13 22 467 415 425 487 776 999 940 979 1286 1306 1242 1048 918 778 703 637 218 116 426 913 1042 1075 1055 1059 994 867 868 949 1074 1160 1238 1281 1342 1276 1319
2 2 7 31 34 3 56 88 56 55 57 67 51 99 79 120 138 120 77 63 62 52 42 21 30 104 199 134 91 72 11 13 50 113 100 68 49 106 32 36 34 194 386 560 523 501 413 5 53 35 7 34 189 134 201 317 456 564 710 795 747 720 638 683 706 722 189 211 280 117 526 828 1003 1011 998 944 839 767 868 1021 1103 1160 1210 1207 933 918
2 0 28 0 80 29 29 11 47 34 60 79 80 76 93 87 87 66 58 52 38 46 30 42 61 30 46 51 52 49 32 33 55 66 63 74 45 4 149 236 250 270 276 359 434 504 621 499 1 0 0 0 16 7 58 74 43 4 20 324 632 750 837 744 667 554 475 259 341 197 964 862 742 772 825 876 827 739 715 661 899 1064 1085 1072 911 540
0 4 9 3 29 20 55 23 40 40 23 23 28 52 79 90 106 86 58 32 20 15 1 0 0 0 0 0 0 0 0 0 0 38 23 10 29 33 24 18 5 108 141 54 35 304 319 260 311 70 148 10 3 4 0 2 5 4 3 0 397 142 314 644 766 707 412 194 160 602 584 246 241 565 347 90 79 0 0 0 550 660 667 374 400 304
0 3 29 0 32 4 6 26 8 10 16 15 17 20 18 17 6 5 0 2 0 0 0 0 0 0 0 0 0 0 0 0 0 5 1 0 0 0 0 0 0 0 14 5 6 3 59 22 16 15 10 14 23 16 39 106 63 14 1 0 0 0 0 0 329 600 592 530 536 445 373 27 80 40 0 0 0 64 387 424 436 422 232 5 0 66
0 0 10 0 0 0 0 0 0 0 0 0 0 0 0 0 0 0 0 0 0 0 0 0 0 0 0 0 4 3 0 0 0 0 0 0 0 0 0 0 0 0 0 0 0 0 1 0 2 12 18 15 0 0 1 29 57 65 61 2 0 0 0 0 0 0 0 0 13 13 11 0 5 7 1 0 0 0 381 458 492 411 186 153 20 0
0 0 0 0 0 0 0 0 0 0 0 0 0 0 0 0 0 0 0 0 0 0 0 0 0 0 0 0 0 0 1 0 1 0 0 0 0 0 0 0 1 4 5 1 4 0 0 0 0 0 0 0 0 0 48 147 9 22 26 1 0 0 0 0 0 0 1 1 0 1 0 0 0 0 0 0 0 181 192 385 386 321 97 0 0 0
1 0 0 0 0 0 0 0 0 0 0 0 0 0 0 0 0 0 0 0 0 0 0 0 3 0 2 0 0 0 0 4 1 2 4 4 0 1 1 1 0 0 1 0 0 0 0 0 0 0 0 0 0 0 0 2 282 0 98 192 63 0 0 0 1 126 166 32 6 0 0 0 0 0 0 0 21 22 190 339 338 331 224 153 25 29
Wind_Speed
nan nan nan nan nan nan nan nan nan nan nan nan nan nan nan nan nan nan nan nan 17 nan nan nan nan nan nan nan nan 16 12 11 10 nan nan nan nan nan nan nan nan nan nan nan 8 7 6 7 7 6 7 9 10 11 12 12 13 14 14 14 16 17 16 14 14 14 14 13 13 12 11 12 13 11 11 11 11 12 14 nan nan nan nan nan nan nan
nan nan nan nan nan nan nan nan nan nan nan nan nan nan nan nan nan nan nan nan 14 nan nan nan nan nan nan nan nan 15 11 12 nan nan nan nan nan nan nan nan nan nan nan 9 9 8 7 7 7 8 8 10 10 14 13 13 14 14 13 14 16 17 15 14 13 13 14 15 15 13 14 13 12 9 9 11 10 11 12 13 nan nan nan nan nan nan
nan nan nan nan nan nan nan nan nan nan nan nan nan nan nan nan nan nan nan nan nan nan nan nan nan nan nan nan 18 nan 17 nan nan nan nan nan nan nan nan nan nan nan nan nan 7 7 6 7 7 9 10 11 12 14 13 13 12 13 13 14 14 15 13 14 12 10 11 12 12 11 13 11 12 12 12 11 11 9 9 12 12 nan nan nan nan nan
nan nan nan nan nan nan nan nan nan nan nan nan nan nan nan nan nan nan nan nan nan nan nan nan nan nan nan nan nan nan nan nan nan nan nan nan nan nan nan nan nan nan nan nan 6 7 7 7 8 10 11 12 12 13 13 11 12 12 12 13 13 14 13 12 11 10 11 11 12 11 10 9 9 11 10 9 10 8 7 8 nan nan nan nan nan nan
nan nan nan nan nan nan nan nan nan nan nan nan nan nan nan nan nan nan nan nan nan nan nan nan nan nan nan nan nan nan nan nan nan nan nan nan nan nan nan nan nan nan nan nan 7 7 7 7 10 11 11 11 12 13 13 11 11 11 12 12 13 12 12 12 11 10 10 8 8 7 7 6 6 7 8 8 9 9 9 8 8 nan nan nan nan nan
nan nan nan nan nan nan nan nan nan nan nan nan nan nan nan nan nan nan nan nan nan nan nan nan nan nan nan nan nan nan nan nan nan nan nan nan nan nan nan nan nan nan nan nan 8 10 9 8 9 11 10 11 11 12 13 11 10 9 11 11 11 11 11 11 11 11 10 10 9 8 7 6 6 6 6 6 7 6 6 8 10 8 8 nan nan nan
nan nan nan nan nan nan nan nan nan nan nan nan nan nan nan nan nan nan nan nan nan nan nan nan nan nan nan nan nan nan nan nan nan nan nan nan nan nan nan nan nan nan nan nan 6 5 5 7 8 11 11 11 10 11 11 10 9 9 10 10 10 11 11 11 12 11 10 9 9 9 10 9 9 8 10 9 9 7 9 8 7 9 8 nan 6 nan
nan nan nan nan nan nan nan nan nan nan nan nan nan nan nan nan 18 nan nan nan nan nan nan nan nan nan nan nan nan nan nan nan nan nan nan nan nan nan nan nan nan nan nan nan nan 7 6 7 8 11 11 10 9 9 9 9 8 8 9 9 10 10 10 11 11 10 10 10 10 9 9 10 10 10 11 10 10 9 9 7 9 8 10 9 nan nan
nan nan nan nan nan nan nan nan nan nan nan nan nan nan nan nan nan nan nan nan 3 nan nan nan nan nan nan nan nan nan nan nan nan nan nan nan nan nan nan nan nan nan nan nan 7 6 6 7 9 9 10 10 7 7 7 7 7 7 8 8 8 10 10 11 10 9 11 10 9 10 10 10 12 11 12 11 10 10 9 8 10 9 10 10 10 10
nan nan nan nan nan nan nan nan nan nan nan nan nan nan nan nan nan nan nan nan nan nan nan nan nan nan nan nan nan nan nan nan nan nan nan nan nan nan nan nan nan nan nan nan 10 8 6 7 8 8 8 8 7 7 6 6 6 6 6 7 7 9 10 10 10 9 9 8 7 7 9 9 11 10 10 9 9 10 9 8 8 9 8 9 9 11
nan nan nan nan nan nan nan nan nan nan nan nan 14 nan nan nan nan nan nan nan nan nan nan nan 2 nan nan nan nan nan nan nan nan nan nan nan nan nan nan nan nan nan nan nan nan 6 5 6 6 5 6 7 8 7 6 5 4 5 5 6 6 8 9 9 9 8 9 7 6 6 7 7 9 10 9 8 8 8 8 8 9 9 10 10 10 11
nan nan nan nan nan nan nan nan nan nan 18 nan nan nan nan nan nan nan nan nan nan nan nan nan 2 nan nan nan nan nan nan nan nan nan nan nan nan nan nan nan nan nan nan nan 6 5 3 5 7 6 5 6 6 6 5 5 3 3 4 4 5 6 8 8 9 9 9 8 7 5 5 6 8 8 8 9 10 10 10 10 11 12 11 11 11 11
nan nan nan nan nan nan nan nan 10 12 nan nan nan nan nan nan nan nan nan nan nan nan nan nan nan nan nan nan nan nan nan nan nan nan nan nan nan nan nan nan nan nan nan nan 5 3 3 3 4 5 5 6 6 4 4 3 2 2 2 2 2 5 6 7 7 8 9 8 6 6 5 6 6 8 8 8 9 10 10 11 10 10 11 12 12 12
nan nan nan nan nan nan nan nan nan 8 nan nan nan nan nan nan nan nan nan nan nan nan nan 7 nan nan nan nan nan nan nan nan nan nan nan nan nan nan nan nan nan nan nan nan 6 4 4 4 4 3 3 3 4 4 4 3 2 1 1 1 1 3 4 4 5 7 7 8 7 6 6 6 6 7 7 8 9 10 10 10 9 10 11 11 11 10
nan nan nan nan nan nan nan nan nan nan nan nan nan nan nan nan nan nan nan nan nan nan nan nan nan nan nan nan nan nan nan nan nan nan nan nan nan nan nan nan nan nan nan nan 5 5 5 4 3 3 3 4 3 4 5 4 3 3 2 1 1 0 3 2 4 5 6 7 7 6 6 7 6 7 8 9 10 10 9 9 8 9 9 9 7 4
nan nan nan nan nan nan nan nan nan nan nan nan nan nan nan nan nan 7 nan nan nan nan nan nan nan nan nan nan nan nan nan nan nan nan nan nan nan nan nan nan nan nan 4 3 4 4 4 3 3 3 4 3 3 4 5 5 5 4 2 2 2 2 2 2 3 4 5 6 6 5 5 7 8 8 9 9 9 10 9 8 8 8 7 6 5 3
nan nan nan nan nan nan nan nan nan nan nan nan nan nan nan nan nan nan nan nan nan nan nan nan nan nan nan nan nan nan nan nan nan nan nan nan nan nan nan nan nan 5 3 3 3 3 3 2 2 2 2 3 4 4 4 5 6 5 4 3 4 3 2 2 3 4 3 4 4 5 5 5 7 9 11 11 10 11 10 10 8 8 6 5 6 6
nan nan nan nan nan nan nan nan nan nan nan nan nan nan nan nan nan nan nan nan nan nan nan nan nan nan nan nan nan nan nan nan nan nan nan nan nan nan nan nan nan 7 6 5 5 4 5 4 2 1 2 2 3 4 4 5 7 7 6 5 6 5 5 3 4 4 3 4 4 4 5 6 8 10 11 11 11 10 11 9 9 9 9 7 7 7
nan nan nan nan nan nan nan nan nan nan nan nan nan nan nan nan nan nan nan nan nan nan nan nan nan nan nan nan nan nan nan nan nan nan nan nan nan nan nan nan nan nan 4 3 4 4 3 3 3 2 2 3 5 5 5 6 7 8 8 7 7 6 7 6 5 5 5 5 5 6 7 8 8 9 10 10 11 11 12 12 11 11 10 8 8 9
nan nan nan nan nan nan nan nan nan nan nan nan nan nan 8 nan nan nan nan nan nan nan nan nan nan nan nan nan nan nan nan nan nan nan nan nan nan nan nan nan nan 11 8 7 6 6 7 7 6 6 5 5 6 6 6 7 8 7 8 9 8 8 8 8 8 7 7 6 7 7 8 8 9 10 11 11 13 13 13 13 13 12 11 10 10 10
nan nan nan nan nan nan nan nan nan nan nan nan nan nan nan nan nan nan nan nan nan nan nan nan nan nan nan nan nan nan nan nan nan nan nan nan nan nan nan nan nan 14 12 11 9 9 9 9 8 7 7 7 8 9 8 9 8 8 9 9 9 11 10 10 9 9 8 9 8 10 10 10 11 11 11 13 13 13 13 13 13 12 11 11 10 10
nan nan nan nan nan nan nan nan nan nan nan nan nan nan nan nan nan nan nan nan nan nan nan nan nan nan nan nan nan nan nan nan nan nan nan nan nan nan nan nan nan 14 14 14 12 11 11 10 10 8 9 9 10 10 10 10 10 10 10 10 11 12 11 11 11 11 11 11 11 11 11 12 12 13 13 14 13 14 13 13 13 12 11 11 11 12
nan nan nan nan nan nan nan nan nan nan nan nan nan nan 15 nan nan nan nan nan nan nan nan nan nan nan nan nan nan nan nan nan nan nan nan nan nan nan nan nan nan 15 14 12 12 12 13 13 13 13 14 15 15 13 14 13 12 12 12 12 13 13 12 13 13 13 13 13 12 11 12 13 13 13 14 15 14 13 13 12 12 12 12 10 12 11
24 nan nan nan nan nan nan nan nan nan nan nan nan nan nan nan nan nan nan nan nan nan nan nan nan nan nan nan nan nan nan nan nan nan nan nan nan nan nan nan nan nan nan 11 11 11 12 12 13 14 15 15 14 14 15 16 15 15 14 15 15 15 15 15 16 16 16 15 13 12 13 13 14 15 15 15 14 14 13 13 11 11 11 11 12 13
nan nan nan nan nan nan nan nan nan nan nan nan nan nan 21 nan 19 nan nan nan nan nan nan nan nan nan nan nan nan nan nan nan nan nan nan nan nan nan nan nan nan nan 6 9 12 11 10 12 15 17 18 18 16 14 14 15 16 16 16 16 17 17 17 17 18 18 18 17 15 14 12 13 14 14 14 15 14 14 13 13 11 10 11 11 12 13
nan nan nan nan nan nan nan nan nan nan nan nan 20 nan 26 nan nan nan 10 nan nan nan nan nan nan nan nan nan nan nan nan nan nan nan nan nan nan nan nan nan nan nan nan 12 13 12 15 16 15 14 16 16 15 15 14 14 15 15 16 16 16 17 16 16 17 17 18 17 16 15 13 13 14 13 14 13 13 13 12 11 10 10 10 12 13 14
nan nan nan nan nan nan nan nan nan nan nan nan nan nan nan nan nan nan nan nan nan nan nan nan nan nan nan nan nan nan nan nan nan nan nan nan nan nan nan nan nan nan nan 14 14 14 14 14 15 15 15 16 17 16 15 15 14 14 14 15 14 14 15 15 15 15 15 15 14 14 13 12 12 13 13 12 11 11 10 10 10 10 12 12 14 15
nan nan nan nan nan nan nan nan nan nan nan nan nan nan nan nan nan nan nan nan nan nan nan nan nan nan nan nan nan nan nan nan nan nan nan nan nan nan nan nan nan nan nan 10 10 12 15 17 17 15 14 14 15 16 15 15 16 16 15 15 14 14 14 14 13 13 12 12 12 11 11 11 12 12 12 11 10 9 8 9 10 10 11 12 14 16
nan nan 33 nan nan nan nan nan nan nan nan nan nan nan nan nan nan nan nan 13 nan nan nan nan 13 nan nan nan nan nan nan nan nan nan nan nan nan nan nan nan nan nan nan 10 9 10 11 15 16 16 14 14 14 16 16 14 14 14 14 15 16 15 14 15 14 12 11 10 9 8 9 11 12 11 11 11 9 8 8 9 11 11 11 11 12 15
nan 36 35 nan nan nan nan nan nan nan nan 30 29 24 nan 23 nan nan 18 18 18 nan nan 15 nan 25 18 17 17 16 nan nan nan nan nan nan nan nan nan nan nan nan nan nan 10 10 11 14 16 16 16 14 15 16 17 16 14 14 15 15 16 16 15 16 14 13 11 9 7 7 8 9 10 10 10 10 9 9 10 11 12 12 11 10 13 16
nan nan 31 nan nan nan nan nan nan nan 34 31 28 29 29 23 nan nan 23 21 21 nan nan nan 24 19 14 16 16 15 16 24 26 25 22 22 20 nan nan nan nan nan nan nan 14 13 13 13 13 14 15 14 14 15 18 18 16 15 14 14 16 17 17 17 15 13 11 8 7 6 6 7 8 9 9 10 11 12 13 13 14 14 12 12 14 19
33 31 nan nan nan nan nan nan nan nan 35 36 33 33 31 29 27 23 25 19 21 22 nan 28 22 16 12 18 14 23 28 30 28 27 29 26 25 27 28 nan nan nan nan 11 13 13 12 10 11 13 13 13 13 14 15 17 17 15 13 14 15 16 17 17 16 15 12 10 9 7 7 7 8 10 10 12 13 15 15 16 16 15 14 15 17 19
25 29 nan nan nan nan nan nan nan nan nan 32 31 27 26 28 32 30 30 31 26 21 30 25 17 14 14 15 21 27 27 28 31 28 27 31 33 34 31 29 30 32 31 27 22 17 12 8 10 12 12 11 12 12 12 17 18 15 13 14 15 17 17 16 16 15 14 13 13 12 11 12 12 12 13 15 16 17 18 18 18 18 17 18 20 22
29 29 nan nan nan nan nan nan nan nan nan 28 27 26 26 29 35 40 33 30 30 30 28 24 18 14 15 19 25 23 27 27 25 25 27 29 30 32 32 30 30 31 30 27 22 20 18 15 15 13 9 10 10 9 10 13 16 15 15 15 17 18 17 16 16 16 15 16 16 17 17 17 17 16 16 18 19 20 20 20 20 20 20 21 22 25
33 32 30 nan nan nan nan nan nan nan nan 23 28 30 34 40 40 42 39 37 34 33 30 25 20 19 18 19 22 22 22 26 28 32 31 31 30 30 28 27 27 28 27 25 23 18 18 20 17 13 13 13 12 13 14 10 10 13 16 17 19 18 17 16 16 16 17 18 18 19 19 20 20 19 19 20 22 22 21 21 23 24 23 24 25 26
nan 34 32 nan nan nan nan nan nan nan 23 25 24 30 29 29 29 30 37 38 36 36 31 27 22 19 19 22 25 25 22 21 27 33 32 30 29 27 27 27 27 28 28 25 23 22 21 20 19 17 16 20 15 14 14 11 11 14 15 19 19 20 19 18 17 17 18 19 19 19 20 21 22 22 22 23 24 23 22 23 26 27 26 25 24 25
nan nan nan nan nan nan nan nan nan 30 30 28 28 28 31 29 27 29 30 33 34 33 34 31 26 23 22 23 24 25 23 25 33 32 31 30 26 25 27 28 29 30 29 27 25 21 20 20 21 21 20 22 25 25 20 17 16 15 17 20 19 21 21 21 19 18 19 20 21 21 21 22 24 24 25 25 25 24 24 26 28 29 29 28 27 29
nan nan nan nan nan nan nan nan 36 35 32 27 28 25 26 26 24 25 33 30 33 32 32 31 29 26 25 24 27 23 22 32 30 26 26 26 26 27 28 29 30 32 33 33 32 28 26 26 26 28 33 33 31 29 24 22 20 18 20 20 21 22 22 22 20 21 22 21 22 23 24 24 25 26 26 27 26 26 26 28 30 32 32 32 32 32
40 nan nan nan nan nan nan nan nan 34 nan 32 28 26 23 26 27 26 32 35 31 30 29 28 29 27 25 25 25 24 27 29 26 24 25 26 28 31 32 33 34 35 36 36 36 33 31 31 30 32 37 40 42 36 32 26 nan 24 21 22 24 24 23 21 20 23 24 23 26 26 27 26 26 26 28 28 27 28 29 31 33 33 34 35 36 38
41 nan 34 nan nan nan nan nan nan nan 34 33 30 28 24 25 25 31 30 27 30 27 27 27 29 28 26 28 26 33 36 33 30 28 28 28 30 34 38 40 41 40 41 40 40 38 32 32 37 39 39 40 39 40 41 41 42 40 38 36 33 31 26 22 21 24 25 26 28 28 29 28 27 27 29 29 29 30 31 34 35 37 37 38 39 42
36 34 nan 33 nan nan nan nan 37 nan 34 34 30 27 25 26 32 33 27 28 22 24 27 28 30 31 31 34 34 36 37 35 33 31 29 31 36 41 41 41 40 41 43 42 41 39 37 37 37 38 38 37 38 40 42 45 49 47 45 44 45 42 38 35 30 28 27 28 28 28 28 29 30 30 29 30 30 32 34 37 38 39 39 41 41 43
nan nan nan nan nan nan nan nan nan 34 32 32 29 27 26 32 30 26 27 24 20 23 26 29 31 33 34 37 36 36 34 33 35 36 36 39 38 35 31 nan 37 42 43 43 43 43 38 37 37 38 41 43 42 42 43 42 44 43 43 44 44 39 38 45 48 41 33 29 27 26 27 29 30 31 31 30 32 35 36 37 40 41 41 41 44 46
nan nan nan nan 29 30 32 34 nan 33 nan nan 28 31 34 37 30 29 nan nan nan 26 29 29 30 31 33 36 37 nan nan nan 39 38 36 36 35 31 28 32 36 37 nan 41 42 41 39 40 nan 39 39 41 43 44 43 41 40 38 40 44 39 38 43 48 52 52 47 41 32 25 24 27 29 32 33 32 34 37 39 41 42 42 42 44 47 50
31 nan nan nan nan nan 29 29 nan nan 28 30 nan 35 31 34 nan nan nan nan nan nan 31 31 32 33 33 nan nan nan 32 nan nan nan nan nan nan nan 27 31 34 nan 35 35 34 34 nan 38 nan nan nan 38 39 43 45 47 45 43 43 40 36 37 39 44 52 53 48 40 34 31 30 31 34 37 37 36 38 40 44 46 45 45 46 46 48 50
nan nan nan nan nan nan nan nan nan nan nan nan nan nan nan 32 34 32 nan nan nan nan nan nan nan 33 34 33 nan nan nan nan nan 27 nan nan nan 22 nan nan nan 35 35 33 32 31 30 nan nan nan nan nan 38 39 44 46 48 47 45 38 36 35 36 35 37 42 46 43 38 37 36 39 42 45 46 45 43 45 46 46 46 48 51 55 49 45
nan nan nan nan nan nan nan nan nan nan nan nan nan nan nan nan nan nan nan nan nan nan nan nan nan nan nan nan nan nan nan nan nan nan nan nan nan nan 27 27 28 30 32 32 32 32 29 28 nan nan nan nan nan nan nan nan nan nan nan 41 38 36 39 39 39 39 41 44 44 41 42 45 47 48 50 51 51 50 47 46 44 45 47 48 44 41
nan nan nan nan nan nan nan nan nan nan nan nan nan nan nan nan 33 nan nan nan nan nan nan nan nan nan nan nan nan nan nan nan nan nan nan nan nan nan nan nan nan 28 28 nan nan 30 30 31 32 nan 38 nan nan nan nan nan nan nan nan nan 44 44 46 47 44 42 44 47 43 42 44 47 45 45 47 nan nan nan nan nan 43 45 44 43 41 41
nan nan nan nan nan nan nan nan nan nan nan nan nan nan nan nan nan nan nan nan nan nan nan nan nan nan nan nan nan nan nan nan nan nan nan nan nan nan nan nan nan nan nan nan nan nan nan nan nan nan nan nan nan nan nan 41 nan nan nan nan nan nan nan nan 48 49 49 49 48 45 43 nan nan nan nan nan nan nan 48 45 45 47 48 nan nan nan
nan nan nan nan nan nan nan nan nan nan nan nan nan nan nan nan nan nan nan nan nan nan nan nan nan nan nan nan nan nan nan nan nan nan nan nan nan nan nan nan nan nan nan nan nan nan nan nan nan nan nan nan nan nan nan nan nan nan nan nan nan nan nan nan nan nan nan nan nan nan nan nan nan nan nan nan nan nan 50 50 49 49 49 47 nan nan
nan nan nan nan nan nan nan nan nan nan nan nan nan nan nan nan nan nan nan nan nan nan nan nan nan nan nan nan nan nan nan nan nan nan nan nan nan nan nan nan nan nan nan nan nan nan nan nan nan nan nan nan nan nan nan 38 nan nan nan nan nan nan nan nan nan nan nan nan nan nan nan nan nan nan nan nan nan 56 57 57 59 56 nan nan nan nan
nan nan nan nan nan nan nan nan nan nan nan nan nan nan nan nan nan nan nan nan nan nan nan nan nan nan nan nan nan nan nan nan nan nan nan nan nan nan nan nan nan nan nan nan nan nan nan nan nan nan nan nan nan nan nan nan 41 nan nan 43 nan nan nan nan nan 46 48 nan nan nan nan nan nan nan nan nan nan nan 60 60 60 62 61 55 nan nan
Wind_Direction
nan nan nan nan nan nan nan nan nan nan nan nan nan nan nan nan nan nan nan nan 21 nan nan nan nan nan nan nan nan 33 41 52 56 nan nan nan nan nan nan nan nan nan nan nan 103 98 94 115 103 94 90 85 80 77 77 75 76 75 74 80 79 83 83 78 77 81 79 81 87 89 84 75 83 80 87 90 84 84 82 nan nan nan nan nan nan nan
nan nan nan nan nan nan nan nan nan nan nan nan nan nan nan nan nan nan nan nan 7 nan nan nan nan nan nan nan nan 35 43 54 nan nan nan nan nan nan nan nan nan nan nan 146 146 137 139 125 107 99 90 84 77 83 82 75 74 80 83 81 82 87 85 80 73 75 78 78 69 69 68 72 76 78 83 90 95 78 80 81 nan nan nan nan nan nan
nan nan nan nan nan nan nan nan nan nan nan nan nan nan nan nan nan nan nan nan nan nan nan nan nan nan nan nan 28 nan 39 nan nan nan nan nan nan nan nan nan nan nan nan nan 126 127 110 102 95 96 91 84 76 83 81 82 83 85 83 82 80 81 76 75 73 71 73 78 72 68 70 62 81 84 74 74 83 84 87 89 88 nan nan nan nan nan
nan nan nan nan nan nan nan nan nan nan nan nan nan nan nan nan nan nan nan nan nan nan nan nan nan nan nan nan nan nan nan nan nan nan nan nan nan nan nan nan nan nan nan nan 94 85 88 81 90 97 92 88 92 93 97 93 82 87 82 78 74 72 72 71 70 69 64 59 61 58 51 63 65 66 83 90 94 92 85 90 nan nan nan nan nan nan
nan nan nan nan nan nan nan nan nan nan nan nan nan nan nan nan nan nan nan nan nan nan nan nan nan nan nan nan nan nan nan nan nan nan nan nan nan nan nan nan nan nan nan nan 105 95 83 81 79 77 84 93 91 94 94 94 87 87 73 70 67 68 68 68 67 63 63 63 69 74 81 72 82 93 93 92 98 91 83 76 87 nan nan nan nan nan
nan nan nan nan nan nan nan nan nan nan nan nan nan nan nan nan nan nan nan nan nan nan nan nan nan nan nan nan nan nan nan nan nan nan nan nan nan nan nan nan nan nan nan nan 53 50 54 67 92 100 94 90 93 95 97 100 91 85 74 72 73 74 72 67 65 65 66 59 49 62 56 59 70 66 74 70 65 79 81 77 77 86 86 nan nan nan
nan nan nan nan nan nan nan nan nan nan nan nan nan nan nan nan nan nan nan nan nan nan nan nan nan nan nan nan nan nan nan nan nan nan nan nan nan nan nan nan nan nan nan nan 83 74 70 86 91 98 93 87 88 98 105 106 99 82 75 76 74 71 72 71 69 71 71 69 69 58 54 50 43 45 74 78 76 71 81 86 96 91 98 nan 96 nan
nan nan nan nan nan nan nan nan nan nan nan nan nan nan nan nan 284 nan nan nan nan nan nan nan nan nan nan nan nan nan nan nan nan nan nan nan nan nan nan nan nan nan nan nan nan 57 55 63 70 82 90 92 87 106 112 103 104 83 78 79 76 76 72 74 72 74 73 68 74 75 67 60 50 52 57 61 73 85 85 97 97 95 99 103 nan nan
nan nan nan nan nan nan nan nan nan nan nan nan nan nan nan nan nan nan nan nan 18 nan nan nan nan nan nan nan nan nan nan nan nan nan nan nan nan nan nan nan nan nan nan nan 49 51 60 69 88 103 102 102 109 117 108 100 98 93 87 82 85 76 74 76 74 76 78 74 71 67 67 70 67 59 56 64 70 72 83 88 96 96 99 105 108 107
nan nan nan nan nan nan nan nan nan nan nan nan nan nan nan nan nan nan nan nan nan nan nan nan nan nan nan nan nan nan nan nan nan nan nan nan nan nan nan nan nan nan nan nan 40 32 51 75 92 98 112 121 117 124 123 124 117 106 99 89 83 76 77 76 78 81 83 84 78 74 75 69 72 71 73 67 63 71 79 84 95 99 103 105 105 105
nan nan nan nan nan nan nan nan nan nan nan nan 331 nan nan nan nan nan nan nan nan nan nan nan 48 nan nan nan nan nan nan nan nan nan nan nan nan nan nan nan nan nan nan nan nan 57 52 82 100 122 114 125 147 145 142 138 114 110 100 90 85 75 76 75 76 83 83 90 93 82 70 63 65 67 64 67 76 84 91 84 88 87 89 98 100 104
nan nan nan nan nan nan nan nan nan nan 306 nan nan nan nan nan nan nan nan nan nan nan nan nan 70 nan nan nan nan nan nan nan nan nan nan nan nan nan nan nan nan nan nan nan 58 77 114 147 134 132 138 147 150 159 151 145 142 114 103 91 91 91 76 76 74 78 78 82 89 87 68 48 50 48 51 47 56 67 71 76 77 85 92 95 99 102
nan nan nan nan nan nan nan nan 261 257 nan nan nan nan nan nan nan nan nan nan nan nan nan nan nan nan nan nan nan nan nan nan nan nan nan nan nan nan nan nan nan nan nan nan 52 74 106 87 92 112 144 163 168 155 155 150 157 134 110 71 85 89 78 70 74 68 68 69 69 66 45 40 28 30 30 35 44 57 54 62 73 80 78 90 97 101
nan nan nan nan nan nan nan nan nan 276 nan nan nan nan nan nan nan nan nan nan nan nan nan 144 nan nan nan nan nan nan nan nan nan nan nan nan nan nan nan nan nan nan nan nan 48 53 69 85 92 110 153 165 169 176 176 180 195 191 170 76 65 81 80 81 70 63 62 63 57 50 23 24 9 13 10 18 25 43 42 45 54 62 65 72 84 100
nan nan nan nan nan nan nan nan nan nan nan nan nan nan nan nan nan nan nan nan nan nan nan nan nan nan nan nan nan nan nan nan nan nan nan nan nan nan nan nan nan nan nan nan 58 50 54 71 85 122 162 170 188 200 202 202 206 217 235 276 329 30 91 82 59 66 60 65 62 46 13 6 3 353 355 2 11 20 28 41 39 54 61 64 80 67
nan nan nan nan nan nan nan nan nan nan nan nan nan nan nan nan nan 356 nan nan nan nan nan nan nan nan nan nan nan nan nan nan nan nan nan nan nan nan nan nan nan nan 54 64 66 71 71 76 122 159 170 178 199 222 218 226 230 230 246 271 307 331 25 41 37 59 53 58 58 32 7 357 346 348 345 351 358 5 7 12 16 30 38 37 15 18
nan nan nan nan nan nan nan nan nan nan nan nan nan nan nan nan nan nan nan nan nan nan nan nan nan nan nan nan nan nan nan nan nan nan nan nan nan nan nan nan nan 32 35 50 45 50 49 117 136 148 189 193 209 225 232 243 248 259 259 264 283 288 295 346 356 23 36 39 34 37 5 346 331 336 336 343 347 349 351 343 347 343 353 347 347 338
nan nan nan nan nan nan nan nan nan nan nan nan nan nan nan nan nan nan nan nan nan nan nan nan nan nan nan nan nan nan nan nan nan nan nan nan nan nan nan nan nan 7 12 16 11 10 10 5 8 152 212 243 239 240 241 250 244 253 261 270 283 281 313 326 324 346 350 352 359 5 348 342 335 336 335 330 330 332 329 327 323 322 322 335 337 320
nan nan nan nan nan nan nan nan nan nan nan nan nan nan nan nan nan nan nan nan nan nan nan nan nan nan nan nan nan nan nan nan nan nan nan nan nan nan nan nan nan nan 321 355 7 354 356 336 330 317 287 264 252 244 246 249 252 247 251 261 271 289 304 311 302 303 306 319 328 331 337 332 330 327 326 320 314 316 319 319 321 323 327 314 311 312
nan nan nan nan nan nan nan nan nan nan nan nan nan nan 303 nan nan nan nan nan nan nan nan nan nan nan nan nan nan nan nan nan nan nan nan nan nan nan nan nan nan 340 349 359 4 6 350 337 323 313 300 294 274 257 241 246 244 258 259 266 265 259 265 273 286 290 302 307 310 313 311 316 319 321 321 314 309 311 315 317 317 317 310 318 315 321
nan nan nan nan nan nan nan nan nan nan nan nan nan nan nan nan nan nan nan nan nan nan nan nan nan nan nan nan nan nan nan nan nan nan nan nan nan nan nan nan nan 342 354 359 359 357 349 335 317 300 295 291 269 257 257 253 262 263 253 261 269 275 273 278 288 285 290 289 297 301 307 313 312 317 316 309 310 309 311 311 311 312 318 302 316 318
nan nan nan nan nan nan nan nan nan nan nan nan nan nan nan nan nan nan nan nan nan nan nan nan nan nan nan nan nan nan nan nan nan nan nan nan nan nan nan nan nan 344 359 2 357 347 341 331 321 305 297 291 289 279 282 275 268 265 265 266 267 267 270 275 279 281 281 279 289 295 300 305 302 308 304 307 308 309 310 308 309 314 301 311 321 323
nan nan nan nan nan nan nan nan nan nan nan nan nan nan 248 nan nan nan nan nan nan nan nan nan nan nan nan nan nan nan nan nan nan nan nan nan nan nan nan nan nan 347 354 4 356 348 339 334 329 330 333 330 325 308 294 287 286 284 282 279 273 277 278 276 276 275 275 276 280 290 290 293 294 296 300 303 304 307 307 307 308 306 312 314 317 319
229 nan nan nan nan nan nan nan nan nan nan nan nan nan nan nan nan nan nan nan nan nan nan nan nan nan nan nan nan nan nan nan nan nan nan nan nan nan nan nan nan nan nan 350 351 346 340 333 331 333 338 335 329 320 311 302 295 289 287 286 282 288 288 282 279 277 276 274 274 278 277 281 286 288 294 298 301 305 304 307 307 307 314 317 318 319
nan nan nan nan nan nan nan nan nan nan nan nan nan nan 232 nan 252 nan nan nan nan nan nan nan nan nan nan nan nan nan nan nan nan nan nan nan nan nan nan nan nan nan 337 335 338 340 332 334 342 346 344 342 337 329 317 309 307 303 301 295 295 294 292 288 283 281 280 277 275 270 269 268 273 280 285 292 294 303 303 309 311 309 317 316 320 315
nan nan nan nan nan nan nan nan nan nan nan nan 227 nan 229 nan nan nan 247 nan nan nan nan nan nan nan nan nan nan nan nan nan nan nan nan nan nan nan nan nan nan nan nan 340 329 328 339 346 347 340 336 334 333 331 327 321 318 315 312 312 303 300 296 296 289 288 286 282 279 270 264 262 262 271 278 285 289 301 306 311 311 315 315 321 321 315
nan nan nan nan nan nan nan nan nan nan nan nan nan nan nan nan nan nan nan nan nan nan nan nan nan nan nan nan nan nan nan nan nan nan nan nan nan nan nan nan nan nan nan 339 333 338 329 325 337 340 334 334 332 332 331 328 324 318 314 314 310 306 304 301 296 296 293 288 285 277 271 267 266 268 271 278 288 293 300 311 315 316 320 324 320 317
nan nan nan nan nan nan nan nan nan nan nan nan nan nan nan nan nan nan nan nan nan nan nan nan nan nan nan nan nan nan nan nan nan nan nan nan nan nan nan nan nan nan nan 319 304 316 336 340 336 331 330 328 327 326 325 325 324 324 320 320 316 312 308 302 304 303 300 294 291 289 286 278 273 270 272 272 280 290 298 304 308 313 316 318 319 316
nan nan 221 nan nan nan nan nan nan nan nan nan nan nan nan nan nan nan nan 267 nan nan nan nan 268 nan nan nan nan nan nan nan nan nan nan nan nan nan nan nan nan nan nan 305 306 319 333 338 334 329 325 328 319 316 316 315 317 317 320 321 318 313 317 310 308 308 307 301 299 295 288 280 277 276 275 277 281 289 294 297 302 305 310 320 317 310
nan 225 225 nan nan nan nan nan nan nan nan 241 242 243 nan 272 nan nan 270 267 265 nan nan 274 nan 260 246 224 217 231 nan nan nan nan nan nan nan nan nan nan nan nan nan nan 310 321 326 329 329 326 322 318 316 311 307 308 313 318 321 321 317 316 315 308 313 313 311 312 310 294 287 286 282 286 286 287 293 297 298 297 297 299 306 316 310 306
nan nan 228 nan nan nan nan nan nan nan 240 241 235 238 237 239 nan nan 261 254 255 nan nan nan 260 254 251 239 232 238 252 255 248 242 243 241 236 nan nan nan nan nan nan nan 315 318 319 320 321 316 313 314 312 311 310 311 314 315 317 318 316 316 313 310 312 313 314 319 311 299 291 287 290 287 296 301 300 297 300 300 294 293 297 300 302 306
228 229 nan nan nan nan nan nan nan nan 245 245 239 234 232 234 246 244 254 249 258 260 nan 252 247 249 239 226 239 241 244 248 251 247 246 244 245 250 245 nan nan nan nan 268 288 293 296 301 307 313 313 312 311 311 308 306 305 303 310 311 312 312 307 310 312 314 314 312 300 297 298 292 290 292 297 295 300 299 299 296 293 291 291 296 302 305
232 240 nan nan nan nan nan nan nan nan nan 242 238 235 239 252 262 260 250 241 242 263 257 254 255 261 252 244 248 243 247 251 252 246 242 243 249 250 249 251 251 244 235 227 221 220 225 261 298 306 305 299 303 309 315 307 297 300 302 300 304 297 297 305 306 306 306 301 300 301 298 292 293 297 297 297 296 293 292 295 294 290 293 305 307 303
231 241 nan nan nan nan nan nan nan nan nan 247 246 237 252 259 260 254 247 241 236 244 256 255 249 244 247 247 249 249 251 257 264 260 254 249 249 251 251 254 260 263 259 251 244 235 223 223 222 229 258 287 295 303 299 297 302 298 292 293 285 288 295 297 297 297 297 294 295 295 293 293 294 296 296 292 290 289 292 293 297 295 298 298 299 303
238 238 241 nan nan nan nan nan nan nan nan 250 246 241 254 260 257 259 251 240 237 242 246 247 241 235 239 252 257 258 263 264 253 248 244 245 249 252 250 252 254 257 260 260 256 253 241 230 241 251 248 243 242 242 248 260 273 272 270 271 274 279 284 286 289 290 287 288 288 286 288 291 292 292 289 287 287 288 292 295 290 294 296 298 303 303
nan 244 241 nan nan nan nan nan nan nan 249 249 248 248 240 252 254 249 242 239 238 239 242 245 242 237 237 246 255 261 260 269 259 249 242 237 243 248 248 243 243 246 249 252 258 255 248 244 242 250 260 255 250 254 260 259 255 257 262 266 271 273 275 276 278 281 279 281 282 282 284 286 287 287 284 285 286 289 294 294 292 295 293 295 297 296
nan nan nan nan nan nan nan nan nan 251 249 246 246 245 246 248 241 246 253 243 240 242 242 243 239 237 233 241 253 256 261 260 251 246 241 239 239 242 245 243 243 244 247 247 247 241 242 246 244 237 244 257 259 246 237 237 254 263 259 261 265 269 270 270 271 273 275 278 280 281 281 282 284 284 285 286 289 293 294 293 289 290 291 295 296 295
nan nan nan nan nan nan nan nan 243 247 255 251 255 248 252 251 249 252 259 251 242 240 243 243 240 237 234 236 241 247 256 250 250 250 245 241 242 244 248 249 245 243 241 240 237 235 235 234 231 232 236 236 242 246 250 251 249 259 265 266 266 265 264 266 271 274 276 278 279 280 279 280 282 285 287 288 293 296 295 292 288 293 293 297 295 292
232 nan nan nan nan nan nan nan nan 254 nan 257 247 241 237 246 251 255 256 250 241 239 241 245 242 238 238 234 234 240 258 263 266 262 252 249 247 246 245 246 247 247 245 243 240 234 232 231 234 232 231 234 236 236 236 238 nan 257 258 263 264 263 264 266 269 272 276 277 277 278 280 282 286 290 293 296 297 297 296 293 294 293 292 293 292 291
233 nan 238 nan nan nan nan nan nan nan 248 248 242 240 237 239 250 262 259 255 242 241 244 245 243 240 235 237 242 248 251 259 257 252 251 252 254 250 242 239 240 242 243 243 241 238 241 240 237 235 233 231 234 237 237 241 247 246 239 234 238 240 243 252 263 269 271 272 275 280 285 287 293 294 294 296 296 295 295 290 289 292 294 292 292 291
231 235 nan 249 nan nan nan nan 241 nan 243 247 243 237 235 248 258 264 271 263 253 247 247 248 247 245 243 241 240 246 247 250 252 254 252 253 253 249 240 238 241 244 242 243 244 241 242 240 240 241 240 240 239 240 242 245 248 248 249 248 245 238 232 226 227 241 255 266 273 280 286 287 290 292 291 292 293 294 290 290 294 294 295 295 292 293
nan nan nan nan nan nan nan nan nan 241 243 244 237 239 242 251 256 269 264 263 254 244 243 242 244 244 247 248 247 246 243 248 257 259 258 255 259 263 254 nan 235 237 240 245 245 244 242 242 241 238 237 238 239 241 244 248 254 257 256 255 255 256 253 246 237 231 239 250 264 272 277 281 281 283 285 289 289 289 292 294 295 296 296 292 292 292
nan nan nan nan 241 241 240 244 nan 242 nan nan 230 246 245 256 257 260 nan nan nan 242 241 241 242 243 245 250 253 nan nan nan 252 254 255 255 260 262 253 240 237 239 nan 239 241 242 244 244 nan 241 240 239 241 244 246 251 251 251 256 261 262 262 261 259 255 251 239 230 228 242 257 265 274 276 275 281 288 293 292 288 288 288 290 292 289 287
243 nan nan nan nan nan 245 248 nan nan 244 230 nan 256 247 251 nan nan nan nan nan nan 246 247 244 246 251 nan nan nan 257 nan nan nan nan nan nan nan 250 250 249 nan 243 246 252 248 nan 246 nan nan nan 247 248 251 254 254 251 250 252 254 250 247 251 259 263 261 257 251 247 242 243 253 265 270 270 276 279 279 279 280 280 280 280 280 283 284
nan nan nan nan nan nan nan nan nan nan nan nan nan nan nan 250 251 252 nan nan nan nan nan nan nan 247 251 256 nan nan nan nan nan 262 nan nan nan 253 nan nan nan 250 249 248 254 254 252 nan nan nan nan nan 250 255 258 257 256 256 253 254 255 254 257 255 253 259 263 260 258 256 255 257 257 251 249 251 257 262 267 272 276 279 282 286 289 289
nan nan nan nan nan nan nan nan nan nan nan nan nan nan nan nan nan nan nan nan nan nan nan nan nan nan nan nan nan nan nan nan nan nan nan nan nan nan 254 248 247 251 253 251 249 249 252 251 nan nan nan nan nan nan nan nan nan nan nan 252 255 265 268 265 261 252 254 263 268 267 267 270 271 264 258 257 257 259 263 269 273 280 288 293 294 295
nan nan nan nan nan nan nan nan nan nan nan nan nan nan nan nan 260 nan nan nan nan nan nan nan nan nan nan nan nan nan nan nan nan nan nan nan nan nan nan nan nan 250 253 nan nan 249 247 251 247 nan 248 nan nan nan nan nan nan nan nan nan 258 266 270 269 268 265 262 262 264 267 271 276 279 277 274 nan nan nan nan nan 285 291 295 290 289 287
nan nan nan nan nan nan nan nan nan nan nan nan nan nan nan nan nan nan nan nan nan nan nan nan nan nan nan nan nan nan nan nan nan nan nan nan nan nan nan nan nan nan nan nan nan nan nan nan nan nan nan nan nan nan nan 265 nan nan nan nan nan nan nan nan 270 273 271 270 269 268 267 nan nan nan nan nan nan nan 278 277 278 285 289 nan nan nan
nan nan nan nan nan nan nan nan nan nan nan nan nan nan nan nan nan nan nan nan nan nan nan nan nan nan nan nan nan nan nan nan nan nan nan nan nan nan nan nan nan nan nan nan nan nan nan nan nan nan nan nan nan nan nan nan nan nan nan nan nan nan nan nan nan nan nan nan nan nan nan nan nan nan nan nan nan nan 268 274 279 279 280 278 nan nan
nan nan nan nan nan nan nan nan nan nan nan nan nan nan nan nan nan nan nan nan nan nan nan nan nan nan nan nan nan nan nan nan nan nan nan nan nan nan nan nan nan nan nan nan nan nan nan nan nan nan nan nan nan nan nan 256 nan nan nan nan nan nan nan nan nan nan nan nan nan nan nan nan nan nan nan nan nan 269 269 265 268 271 nan nan nan nan
nan nan nan nan nan nan nan nan nan nan nan nan nan nan nan nan nan nan nan nan nan nan nan nan nan nan nan nan nan nan nan nan nan nan nan nan nan nan nan nan nan nan nan nan nan nan nan nan nan nan nan nan nan nan nan nan 260 nan nan 265 nan nan nan nan nan 281 283 nan nan nan nan nan nan nan nan nan nan nan 272 270 265 262 262 265 nan nan